[[{"header":{"parameterUnit":"m.s-1","parameterCategory":1,"la1":30.2991,"la2":30.254,"lo1":-89.0895,"lo2":-89.0444,"dy":0.0017,"dx":0.0017,"nx":28,"ny":28,"refTime":"2025-12-31T03:00:00:Z","depth":0,"parameterNumber":2,"parameterNumberName":"U-component_of_WINDS"},"data":[0,0,0,0,0,0,0,0,0,0,0,0,0,0,0,0,0,0,0,0,0,0,0,0,0,0,0,0,0,0,0,0,0,0,0,0,0,0,0,0,0,0,0,0,0,0,0,0,0,0,0,0,0,0,0,0,0,0,2.2598,2.2598,0,2.2611,2.2611,2.2611,2.2564,2.2563,2.2562,2.256,2.2573,2.2575,2.2576,0,0,0,0,0,0,0,0,0,0,0,0,0,2.2531,2.2532,2.2598,2.2598,2.2598,2.2611,2.2611,2.2611,2.2565,2.2563,2.2561,2.256,2.2572,2.2574,2.2576,0,0,0,0,0,0,0,0,0,0,0,0,0,2.2554,2.2533,2.2598,2.2576,2.2574,2.2611,2.2611,2.2611,2.2565,2.2563,2.2561,2.2559,2.2572,2.2574,2.2577,2.2634,0,0,2.2584,2.2585,0,0,0,0,0,0,0,0,2.2553,2.2556,2.2579,2.2578,2.2576,2.2584,2.2592,2.2619,2.2565,2.2568,2.256,2.2558,2.2578,2.258,2.2587,2.2635,2.2635,2.2585,2.2586,2.2587,2.2588,0,0,0,0,0,0,0,2.2551,2.2555,2.2603,2.2579,2.2577,2.2566,2.2567,2.2597,2.2585,2.2568,2.2565,2.2567,2.2577,2.2585,2.2587,2.2636,2.2584,2.2587,2.2588,2.2589,2.2732,2.2734,0,0,0,0,0,0,2.2552,2.2554,2.2602,2.2603,2.2559,2.2569,2.257,2.2583,2.2585,2.2583,2.2569,2.2565,2.2582,2.2584,2.2587,2.2655,2.2587,2.2589,2.2591,2.273,2.2733,2.2735,0,0,0,0,0,0,2.2551,2.2557,2.2602,2.2578,2.2583,2.2572,2.2588,2.2585,2.2593,2.2585,2.2583,2.2579,2.258,2.2584,2.2623,2.2655,2.2591,2.2593,2.2727,2.2731,2.2734,2.2791,0,0,0,0,0,0,2.2549,2.2557,2.2579,2.2579,2.2584,2.2638,2.259,2.2587,2.2597,2.2592,2.2594,2.2593,2.2579,2.262,2.2626,2.2657,2.2595,2.2724,2.2729,2.2733,2.2786,2.2796,2.2804,0,0,0,0,0,2.2547,2.2594,2.258,2.2586,2.2611,2.2639,2.2643,2.2626,2.26,2.2622,2.2617,2.2592,2.2651,2.2624,2.263,2.2663,2.2722,2.2727,2.2732,2.2782,2.2794,2.2804,0,0,0,0,0,0,2.2597,2.2593,2.2578,2.2626,2.2634,2.2631,2.2658,2.2639,2.2654,2.2648,2.2627,2.2628,2.2671,2.2671,2.2642,2.2719,2.2682,2.2689,2.2717,2.2729,2.2738,2.2736,2.2597,0,0,0,0,0,2.2613,2.2637,2.2633,2.2675,2.268,2.2669,2.268,2.2667,2.2674,2.2677,2.2675,2.2682,2.2702,2.2716,2.2733,2.2786,2.2786,2.2812,2.2821,2.2829,2.2834,2.2863,2.2874,2.2752,2.2752,2.2752,0,0,2.2648,2.2649,2.2665,2.2685,2.269,2.2714,2.2672,2.2699,2.2717,2.2681,2.2718,2.2717,2.2724,2.277,2.2791,2.2772,2.2868,2.2835,2.2841,2.2843,2.2869,2.2881,2.2891,2.2756,2.2755,2.2754,0,0,2.2723,2.2726,2.2762,2.2768,2.2775,2.2768,2.2777,2.2778,2.2776,2.2813,2.2786,2.2808,2.2842,2.2848,2.2856,2.2936,2.2913,2.2942,2.2989,2.3017,2.3026,2.3035,2.3063,2.3073,2.2948,2.2948,2.2948,0,2.2764,2.2801,2.2783,2.2813,2.2823,2.2792,2.2829,2.2835,2.2848,2.2855,2.2834,2.2878,2.288,2.2928,2.2947,2.2955,2.2964,2.2941,2.3026,2.3035,2.3042,2.3069,2.308,2.2952,2.2951,2.2951,2.295,0,2.2851,2.2877,2.2906,2.2919,2.2933,2.2966,2.2954,2.2969,2.2956,2.295,2.2989,2.2991,2.3009,2.302,2.3006,2.3066,2.3054,2.303,2.2992,2.3058,2.3082,2.3092,2.2956,2.2955,2.2954,2.2953,0,0,2.2956,2.2961,2.2972,2.2978,2.2985,2.3004,2.3036,2.3055,2.3068,2.3079,2.3105,2.3136,2.3115,2.3123,2.3111,2.3135,2.3198,2.3108,2.3108,2.3125,2.3264,2.3281,2.3293,2.3184,2.3186,2.3187,2.3263,0,2.303,2.3085,2.3071,2.3126,2.3149,2.3121,2.3149,2.3157,2.3153,2.3173,2.3169,2.3191,2.3161,2.3166,2.3189,2.3186,2.3226,2.318,2.3208,2.3209,2.3206,2.3306,2.3324,2.3395,2.3273,2.3274,2.3275,0,2.3122,2.3137,2.3195,2.3198,2.3207,2.3233,2.3249,2.3268,2.3276,2.3272,2.3283,2.3265,2.3297,2.326,2.3304,2.3273,2.3284,2.3284,2.3286,2.3287,2.3246,2.3309,2.3418,2.3428,2.329,2.3289,2.3288,0,2.3193,2.3227,2.3266,2.3272,2.3277,2.3296,2.3299,2.3305,2.3317,2.3331,2.3339,2.3357,2.3366,2.3381,2.3369,2.3342,2.3414,2.3376,2.3411,2.3412,2.3427,2.3426,2.3538,2.3435,2.3435,2.3435,2.3435,0,2.3276,2.3312,2.3298,2.3321,2.3361,2.3345,2.3385,2.3385,2.3391,2.3414,2.3391,2.3413,2.3397,2.3418,2.3409,2.3446,2.3451,2.3448,2.3445,2.345,2.345,2.3456,2.345,2.3438,2.3437,2.3437,2.3436,0,2.3361,2.3353,2.3393,2.3395,2.3397,2.3426,2.3428,2.345,2.3445,2.3475,2.3481,2.3474,2.3498,2.3488,2.3512,2.3506,2.3555,2.3545,2.3552,2.3549,2.3585,2.3582,2.3704,2.3719,2.3608,2.3609,2.361,0,2.3414,2.3441,2.3446,2.3461,2.3466,2.3489,2.3501,2.3487,2.3501,2.3513,2.3534,2.3556,2.3572,2.3612,2.3608,2.3628,2.3618,2.366,2.3621,2.3625,2.3618,2.3616,2.3619,2.3667,2.3669,2.367,2.367,0,2.3509,2.3504,2.3523,2.3541,2.3557,2.3571,2.3582,2.3595,2.3582,2.3599,2.3623,2.3636,2.3662,2.3684,2.3701,2.3704,2.3685,2.3683,2.3692,2.3697,2.3699,2.3698,2.3572,2.368,2.3679,2.3678,2.3678,2.3677,2.3579,2.3602,2.361,2.3632,2.364,2.3651,2.3672,2.3671,2.3691,2.3711,2.3702,2.373,2.3738,2.3759,2.3765,2.3787,2.3771,2.3784,2.3787,2.3791,2.3795,2.3697,2.379,2.379,2.379,2.379,2.3789,0,2.3672,2.3676,2.3697,2.3714,2.3732,2.3714,2.3726,2.3742,2.3767,2.3777,2.3794,2.3822,2.3844,2.3843,2.3863,2.3881,2.3873,2.3887,2.3885,2.3886,2.3809,2.3799,2.3893,2.3893,2.3893,2.3893,2.3893,2.3893,2.3722,2.3761,2.3757,2.3799,2.3802,2.383,2.3839,2.385,2.3857,2.389,2.3908,2.3908,2.3913,2.3934,2.3953,2.3952,2.396,2.3977,2.3973,2.3901,2.3891,2.3881,2.3871,2.3979,2.3979,2.4048,2.4049,2.4049]},{"header":{"parameterUnit":"m.s-1","parameterCategory":1,"la1":30.2991,"la2":30.254,"lo1":-89.0895,"lo2":-89.0444,"dy":0.0017,"dx":0.0017,"nx":28,"ny":28,"refTime":"2025-12-31T03:00:00:Z","depth":0,"parameterNumber":3,"parameterNumberName":"V-component_of_WINDS"},"data":[0,0,0,0,0,0,0,0,0,0,0,0,0,0,0,0,0,0,0,0,0,0,0,0,0,0,0,0,0,0,0,0,0,0,0,0,0,0,0,0,0,0,0,0,0,0,0,0,0,0,0,0,0,0,0,0,0,0,-4.5056,-4.5058,0,-4.5242,-4.5244,-4.5246,-4.5181,-4.5177,-4.5173,-4.5169,-4.5357,-4.5366,-4.5374,0,0,0,0,0,0,0,0,0,0,0,0,0,-4.4644,-4.4652,-4.5056,-4.5058,-4.5061,-4.5241,-4.5244,-4.5246,-4.5182,-4.5177,-4.5172,-4.5167,-4.5354,-4.5365,-4.5375,0,0,0,0,0,0,0,0,0,0,0,0,0,-4.4825,-4.4654,-4.5055,-4.505,-4.5051,-4.5241,-4.5244,-4.5247,-4.5183,-4.5176,-4.517,-4.5165,-4.5351,-4.5364,-4.5377,-4.5582,0,0,-4.5417,-4.5423,0,0,0,0,0,0,0,0,-4.4815,-4.4841,-4.5049,-4.5051,-4.5053,-4.5182,-4.5167,-4.5359,-4.5184,-4.5133,-4.5169,-4.5162,-4.5304,-4.532,-4.5369,-4.5591,-4.5599,-4.5418,-4.5426,-4.5432,-4.5436,0,0,0,0,0,0,0,-4.4803,-4.4832,-4.5129,-4.5052,-4.5054,-4.5038,-4.5057,-4.5204,-4.525,-4.5137,-4.5133,-4.5155,-4.5303,-4.5356,-4.5373,-4.5602,-4.5418,-4.543,-4.5438,-4.5443,-4.6001,-4.6008,0,0,0,0,0,0,-4.4789,-4.4822,-4.5123,-4.5135,-4.4916,-4.505,-4.5071,-4.5147,-4.5249,-4.5258,-4.5161,-4.5152,-4.5336,-4.5357,-4.5379,-4.5626,-4.5432,-4.5444,-4.5452,-4.5995,-4.6003,-4.601,0,0,0,0,0,0,-4.4781,-4.4817,-4.5116,-4.4978,-4.5014,-4.5064,-4.5149,-4.5153,-4.5206,-4.5267,-4.5274,-4.5206,-4.5332,-4.536,-4.5532,-4.5632,-4.545,-4.5462,-4.5986,-4.5997,-4.6007,-4.6123,0,0,0,0,0,0,-4.4769,-4.4814,-4.4893,-4.498,-4.5022,-4.5267,-4.5155,-4.5162,-4.5229,-4.5219,-4.5311,-4.532,-4.533,-4.5513,-4.5545,-4.5647,-4.5473,-4.5978,-4.5991,-4.6003,-4.611,-4.6136,-4.6158,0,0,0,0,0,-4.4755,-4.4918,-4.4897,-4.4934,-4.5122,-4.5273,-4.5297,-4.5305,-4.5237,-4.5317,-4.5356,-4.5317,-4.5616,-4.5531,-4.5567,-4.5674,-4.5971,-4.5987,-4.6002,-4.61,-4.6131,-4.6157,0,0,0,0,0,0,-4.4841,-4.4929,-4.4907,-4.5104,-4.5181,-4.5262,-4.5362,-4.5337,-4.5435,-4.5422,-4.5427,-4.5448,-4.5625,-4.5666,-4.5571,-4.5878,-4.5783,-4.5807,-4.5845,-4.5875,-4.5898,-4.5885,-4.5484,0,0,0,0,0,-4.4883,-4.4999,-4.5069,-4.5236,-4.5276,-4.5313,-4.5378,-4.5378,-4.5458,-4.5491,-4.5542,-4.5621,-4.5732,-4.5806,-4.5912,-4.6115,-4.6135,-4.6207,-4.6231,-4.625,-4.627,-4.6381,-4.6414,-4.6061,-4.6061,-4.6061,0,0,-4.4971,-4.5033,-4.5106,-4.5255,-4.5315,-4.5434,-4.5341,-4.5471,-4.5559,-4.551,-4.5676,-4.5717,-4.5805,-4.5994,-4.608,-4.6034,-4.6372,-4.6269,-4.6284,-4.6294,-4.6401,-4.6434,-4.6464,-4.6072,-4.607,-4.6068,0,0,-4.5192,-4.5251,-4.5396,-4.5458,-4.5551,-4.5574,-4.5609,-4.5693,-4.5719,-4.5885,-4.5851,-4.5956,-4.6148,-4.6212,-4.627,-4.6516,-4.6484,-4.655,-4.6674,-4.6782,-4.681,-4.6835,-4.6923,-4.6954,-4.657,-4.657,-4.6571,0,-4.5289,-4.5468,-4.5474,-4.5607,-4.5674,-4.5635,-4.5782,-4.5842,-4.5964,-4.6011,-4.5958,-4.6198,-4.6255,-4.6458,-4.6518,-4.6566,-4.6606,-4.654,-4.6806,-4.6831,-4.6854,-4.6938,-4.6971,-4.6578,-4.6577,-4.6576,-4.6575,0,-4.5584,-4.5708,-4.5815,-4.5934,-4.6012,-4.6152,-4.6178,-4.6256,-4.6249,-4.6278,-4.6448,-4.6515,-4.6633,-4.6681,-4.6675,-4.6885,-4.6854,-4.6803,-4.6708,-4.6895,-4.6974,-4.7006,-4.6588,-4.6586,-4.6584,-4.6582,0,0,-4.5865,-4.5986,-4.6025,-4.6079,-4.6178,-4.6274,-4.6412,-4.6529,-4.6596,-4.6681,-4.6797,-4.696,-4.6915,-4.698,-4.6981,-4.7076,-4.7267,-4.7014,-4.7016,-4.7059,-4.7502,-4.754,-4.7577,-4.7246,-4.7252,-4.7257,-4.7495,0,-4.6095,-4.6337,-4.6346,-4.6567,-4.6683,-4.6648,-4.6767,-4.6841,-4.6872,-4.6973,-4.7006,-4.7122,-4.7053,-4.7093,-4.7185,-4.7224,-4.7356,-4.7207,-4.7353,-4.7359,-4.7333,-4.7618,-4.7659,-4.788,-4.7526,-4.7531,-4.7535,0,-4.6395,-4.6491,-4.6724,-4.6807,-4.6855,-4.6963,-4.7071,-4.7169,-4.7251,-4.7267,-4.7341,-4.7327,-4.7467,-4.7368,-4.7561,-4.7459,-4.7519,-4.7548,-4.7556,-4.7571,-4.7459,-4.7641,-4.7951,-4.7984,-4.7583,-4.758,-4.7576,0,-4.6578,-4.6764,-4.6928,-4.6975,-4.7076,-4.7153,-4.7198,-4.7274,-4.7344,-4.7438,-4.7483,-4.7592,-4.7652,-4.7736,-4.7753,-4.7678,-4.7947,-4.7848,-4.7963,-4.7963,-4.8022,-4.8018,-4.8346,-4.806,-4.8059,-4.8059,-4.8058,0,-4.6834,-4.6978,-4.7012,-4.7113,-4.7273,-4.7281,-4.7439,-4.7479,-4.7547,-4.7655,-4.763,-4.7732,-4.7747,-4.7852,-4.7865,-4.8023,-4.805,-4.8066,-4.8068,-4.8069,-4.8067,-4.8109,-4.8095,-4.8068,-4.8066,-4.8064,-4.8062,0,-4.7065,-4.7094,-4.727,-4.7351,-4.7374,-4.7489,-4.7558,-4.7654,-4.7682,-4.7818,-4.7851,-4.7894,-4.8017,-4.8041,-4.8185,-4.8194,-4.8383,-4.8369,-4.8355,-4.8354,-4.8469,-4.8458,-4.8836,-4.8886,-4.8566,-4.8569,-4.8572,0,-4.7227,-4.7337,-4.743,-4.7501,-4.755,-4.7664,-4.7735,-4.7747,-4.7822,-4.7925,-4.8009,-4.8128,-4.8225,-4.8422,-4.8466,-4.8576,-4.8565,-4.869,-4.8581,-4.8579,-4.8568,-4.8562,-4.8573,-4.8711,-4.8714,-4.8717,-4.8719,0,-4.7511,-4.752,-4.7624,-4.7734,-4.782,-4.7906,-4.7988,-4.8048,-4.807,-4.8156,-4.8281,-4.8356,-4.8504,-4.8623,-4.8733,-4.8779,-4.8754,-4.8753,-4.8786,-4.8788,-4.8776,-4.8785,-4.8413,-4.8745,-4.8742,-4.874,-4.8739,-4.8738,-4.7714,-4.781,-4.7891,-4.8007,-4.8071,-4.8148,-4.8243,-4.8283,-4.8387,-4.8509,-4.8509,-4.8646,-4.8726,-4.8871,-4.8924,-4.9031,-4.8991,-4.9039,-4.9051,-4.9062,-4.9074,-4.8759,-4.9051,-4.905,-4.9049,-4.9049,-4.9048,0,-4.7997,-4.8048,-4.8155,-4.8271,-4.8363,-4.8331,-4.8421,-4.8499,-4.8621,-4.8697,-4.8793,-4.8936,-4.9052,-4.9105,-4.9219,-4.9294,-4.9286,-4.9324,-4.9319,-4.933,-4.9102,-4.9063,-4.9329,-4.9329,-4.9329,-4.9329,-4.9329,-4.9329,-4.8156,-4.8318,-4.8336,-4.8529,-4.8578,-4.8712,-4.8766,-4.8837,-4.8898,-4.906,-4.9157,-4.919,-4.9258,-4.9376,-4.9481,-4.9493,-4.9537,-4.9581,-4.9588,-4.9374,-4.9346,-4.9319,-4.9282,-4.959,-4.959,-4.9807,-4.9809,-4.9811]}]]